Showing default

MERIDIAN 10, 52145

Orbit data source: Space-Track

MERIDIAN 10, 52145 is a payload satellite owned by VVKO VKS (CIS) in HEO that was launched on Tue, 22 Mar 2022 UTC via a SOYUZ-2-1A launch vehicle from the Plesetsk Missile And Space Complex (PKMTR). Payload-class satellites include a variety of spacecraft equipped with specific instruments for various scientific and technological missions. These include communications satellites like Starlink; space stations such as the ISS; scientific satellites like the Hubble; Earth observation satellites from companies like Planet Labs, Umbra, and HawkEye 360; GPS; miniature CubeSats for education and research; and military/defense satellites.

Loading next visibility...
Identifier
52145, 2022-030A
Orbit
HEO
Country
Flag of CISCIS
Related business
Manufacturer
Resehetnev ISS
Mission
Operational Defense Communications
Bus & Motor
MERIDIAN, Unknown motor
Mass
~2,000 kg wet, ~2,000 kg dry
Launch date (UTC)
2022-03-22 (4 years ago)
Launch vehicle
SOYUZ-2-1A
Launch site
Plesetsk Missile And Space Complex (PKMTR)
Object type
Payload
Rocket body
Debris
Shape & HBR
Box + 2 Pan, 5.0 m
Radar Cross Section
14.304 m², Large (>1 m²)

Expand to show TLE details & history
Last TLE update: 1 day ago

TLE from 1 day ago
0 MERIDIAN 10
1 52145U 22030A   26171.95782029  .00000183  00000-0  00000+0 0  9994
2 52145  62.6779 140.3857 6785019 272.8522  17.6375  2.00613230 31109
Epoch: 2026-06-20T22:59Z
TLE epoch observation values (Epoch: 2026-06-20T22:59:15.673Z)
Latitude
0.00006°
Longitude
-113.61854°
Altitude
7,502.442 km
Speed
6.514 km/s
True Right ascension
09h 21m 26s
True Declination
0° 00' 00"
Sunlit
Object was in daylight at epoch
Visualization orbit readout
Latitude
Unknown
Longitude
Unknown
Altitude
Unknown
Speed
Unknown
Apparent Right ascension
Unknown
Apparent Declination
Unknown
Sunlit
N/A
Visualization observer readout
Local Sidereal Time
21:23:52
Azimuth
Unknown
Elevation
Unknown
Doppler factor
Unknown
Orbital elements
Apogee altitude
38,194.84 km
Perigee altitude
2,159.314 km
Semi-major axis
26,555.214 km
Eccentricity
0.6785
Inclination
62.6779°
RAAN
140.3857°
Arg. of periapsis
272.8522°
True anomaly
87.18996°
Mean anomaly
17.6375°
Eccentric anomaly
45.24266°
Mean motion
0.50155 °/min
Orbital period
717.77 mins
BSTAR
0
Loading maneuver chart data...
Computing Atmospheric mass density...
Loading historical data...
Loading historical data...
Loading historical data...
Loading historical data...
Loading historical data...
Loading historical data...
Loading historical data...
Other satellites on launch #30 in the year 2022 (2022-03-22 UTC)

Documentation

Showing up to 5 results
|